Torna al catalogo

KUIPER-00081

AttivoComunicazioniLEO
NORAD 65132·PAYLOAD·🇺🇸 United States

Lanciato Aug 11, 2025 da Cape Canaveral Space Force Station

Loading…

Prossimi Passaggi (prossime 24 ore)

TLE

AggiornatoSource: CelesTrak SupGP

Epoca: Sep 14, 2026, 20:16 UTC

1 65132C 25171A   26257.84488426  .00004322  00000+0  56572-3 0  2574
2 65132  51.9007  31.6280 0000505 111.5302  98.5042 14.79930030    19

Traccia KUIPER-00081 in tempo reale con AllMySat

Download on the App Store